JASON-3
Last updated on Sun Jun 21 2026 00:02:52 GMT+0000 (Coordinated Universal Time)
1 41240U 16002A 26171.42010391 -.00000038 00000+0 96061-4 0 9994
2 41240 66.0406 119.0381 0008478 272.6497 87.3551 12.87628140487661
Next 0 passes for location: London (51.5072 / 0.1276)
No passes found over London.